[[{"header":{"parameterUnit":"m.s-1","parameterCategory":1,"la1":30.2991,"la2":30.254,"lo1":-89.0895,"lo2":-89.0444,"dy":0.0017,"dx":0.0017,"nx":28,"ny":28,"refTime":"2023-10-30T09:00:00:Z","depth":0,"parameterNumber":2,"parameterNumberName":"U-component_of_WINDS"},"data":[0,0,0,0,0,0,0,0,0,0,0,0,0,0,0,0,0,0,0,0,0,0,0,0,0,0,0,0,0,0,0,0,0,0,0,0,0,0,0,0,0,0,0,0,0,0,0,0,0,0,0,0,0,0,0,0,0,0,-0.0252,-0.0253,0,-0.0318,-0.0318,-0.0319,-0.0341,-0.0341,-0.0341,-0.0341,-0.0412,-0.0414,-0.0416,0,0,0,0,0,0,0,0,0,0,0,0,0,-0.015,-0.0152,-0.0252,-0.0253,-0.0254,-0.0318,-0.0318,-0.0319,-0.0342,-0.0341,-0.0341,-0.0341,-0.0411,-0.0414,-0.0416,0,0,0,0,0,0,0,0,0,0,0,0,0,-0.0203,-0.0152,-0.0252,-0.0272,-0.0275,-0.0317,-0.0319,-0.032,-0.0342,-0.0341,-0.0341,-0.034,-0.041,-0.0413,-0.0417,-0.0445,0,0,-0.0426,-0.0428,0,0,0,0,0,0,0,0,-0.02,-0.0207,-0.0268,-0.0271,-0.0274,-0.0321,-0.0309,-0.0362,-0.0342,-0.0316,-0.0341,-0.034,-0.0382,-0.0388,-0.0401,-0.0448,-0.0451,-0.0427,-0.0429,-0.043,-0.0431,0,0,0,0,0,0,0,-0.0196,-0.0204,-0.0278,-0.0269,-0.0273,-0.028,-0.0287,-0.0319,-0.0351,-0.0319,-0.032,-0.0328,-0.0384,-0.0398,-0.0403,-0.0452,-0.0427,-0.043,-0.0432,-0.0433,-0.0527,-0.0528,0,0,0,0,0,0,-0.0188,-0.0201,-0.0276,-0.028,-0.0235,-0.0282,-0.029,-0.0306,-0.0351,-0.0357,-0.0328,-0.0328,-0.0393,-0.0399,-0.0405,-0.0442,-0.043,-0.0433,-0.0435,-0.0527,-0.0527,-0.0528,0,0,0,0,0,0,-0.0186,-0.0195,-0.0273,-0.0241,-0.0251,-0.0284,-0.0302,-0.0308,-0.0322,-0.0358,-0.0364,-0.0336,-0.0392,-0.0401,-0.0435,-0.0445,-0.0435,-0.0437,-0.0526,-0.0527,-0.0528,-0.0516,0,0,0,0,0,0,-0.0183,-0.0194,-0.0204,-0.0241,-0.0253,-0.03,-0.0303,-0.0309,-0.0327,-0.0328,-0.0367,-0.0373,-0.0393,-0.043,-0.0438,-0.0449,-0.044,-0.0525,-0.0526,-0.0527,-0.0516,-0.0516,-0.0517,0,0,0,0,0,-0.0179,-0.0199,-0.0204,-0.0213,-0.0266,-0.0301,-0.0308,-0.0329,-0.0328,-0.0339,-0.0362,-0.0372,-0.0442,-0.0433,-0.0443,-0.0455,-0.0525,-0.0526,-0.0527,-0.0515,-0.0516,-0.0517,0,0,0,0,0,0,-0.0164,-0.0204,-0.0211,-0.0242,-0.0268,-0.0305,-0.0319,-0.0329,-0.0357,-0.0357,-0.0383,-0.0392,-0.0424,-0.0443,-0.0432,-0.0485,-0.0484,-0.0488,-0.0472,-0.0473,-0.0474,-0.0469,-0.0443,0,0,0,0,0,-0.0163,-0.0187,-0.0222,-0.0246,-0.0259,-0.0287,-0.0303,-0.0316,-0.0345,-0.0356,-0.0381,-0.0409,-0.0438,-0.0456,-0.0485,-0.0518,-0.0528,-0.0531,-0.0532,-0.0532,-0.0535,-0.0556,-0.0558,-0.0532,-0.0532,-0.0532,0,0,-0.0164,-0.0189,-0.0203,-0.0244,-0.0265,-0.0291,-0.0296,-0.0322,-0.0342,-0.0361,-0.0394,-0.0414,-0.0447,-0.0481,-0.0497,-0.0498,-0.0544,-0.0534,-0.0534,-0.0537,-0.0557,-0.0559,-0.0562,-0.0533,-0.0533,-0.0533,0,0,-0.0179,-0.0199,-0.0222,-0.0244,-0.0276,-0.0294,-0.0299,-0.0335,-0.0348,-0.0382,-0.0397,-0.0421,-0.0469,-0.0493,-0.0511,-0.0534,-0.0545,-0.0542,-0.0546,-0.0566,-0.0568,-0.057,-0.0579,-0.0582,-0.0545,-0.0545,-0.0545,0,-0.0176,-0.0213,-0.0233,-0.0259,-0.0277,-0.0294,-0.0319,-0.0339,-0.0379,-0.0392,-0.0391,-0.0452,-0.0476,-0.0516,-0.0522,-0.0535,-0.0544,-0.0539,-0.0565,-0.0568,-0.057,-0.0579,-0.0583,-0.0544,-0.0544,-0.0545,-0.0545,0,-0.0209,-0.0235,-0.025,-0.0287,-0.0307,-0.0332,-0.0357,-0.0375,-0.0387,-0.0406,-0.0441,-0.0469,-0.0504,-0.0514,-0.0527,-0.0557,-0.0556,-0.056,-0.056,-0.0572,-0.0581,-0.0585,-0.0544,-0.0544,-0.0544,-0.0544,0,0,-0.0216,-0.0263,-0.0269,-0.0286,-0.0323,-0.0344,-0.037,-0.0402,-0.0418,-0.0445,-0.0469,-0.0509,-0.0513,-0.0534,-0.0549,-0.0566,-0.0584,-0.0568,-0.057,-0.0571,-0.062,-0.0618,-0.0621,-0.0591,-0.0591,-0.0592,-0.0618,0,-0.0236,-0.0282,-0.0301,-0.0339,-0.0364,-0.038,-0.0403,-0.0429,-0.0447,-0.0472,-0.0493,-0.0522,-0.0524,-0.0537,-0.0554,-0.0578,-0.0594,-0.0576,-0.0615,-0.0616,-0.0607,-0.0626,-0.0623,-0.0646,-0.0621,-0.0622,-0.0622,0,-0.0266,-0.0292,-0.0332,-0.0366,-0.0377,-0.0397,-0.0429,-0.0452,-0.0482,-0.0494,-0.0517,-0.0531,-0.0561,-0.0558,-0.06,-0.0587,-0.0604,-0.0618,-0.0619,-0.0625,-0.0621,-0.0633,-0.0654,-0.0658,-0.0628,-0.0628,-0.0627,0,-0.0269,-0.0314,-0.0344,-0.0358,-0.0398,-0.0412,-0.0429,-0.0459,-0.0477,-0.0505,-0.0518,-0.055,-0.0567,-0.0592,-0.0615,-0.061,-0.0655,-0.0654,-0.0668,-0.0667,-0.0678,-0.0677,-0.0703,-0.0686,-0.0686,-0.0686,-0.0686,0,-0.029,-0.0314,-0.0345,-0.0364,-0.0392,-0.0414,-0.0442,-0.0461,-0.0486,-0.051,-0.0526,-0.0549,-0.0577,-0.0603,-0.0621,-0.0654,-0.0662,-0.0674,-0.0679,-0.0673,-0.0672,-0.0685,-0.0685,-0.0687,-0.0687,-0.0687,-0.0687,0,-0.0298,-0.032,-0.0354,-0.0388,-0.0398,-0.0417,-0.0447,-0.0467,-0.0486,-0.0515,-0.0524,-0.0554,-0.0586,-0.0611,-0.0652,-0.0665,-0.07,-0.0704,-0.0689,-0.0692,-0.0705,-0.0704,-0.0742,-0.0748,-0.0726,-0.0726,-0.0726,0,-0.0311,-0.0329,-0.0366,-0.0382,-0.0399,-0.0425,-0.0444,-0.0466,-0.0486,-0.0521,-0.0537,-0.0569,-0.0596,-0.0647,-0.0673,-0.0706,-0.0712,-0.0723,-0.0717,-0.0711,-0.0714,-0.0713,-0.0716,-0.0724,-0.0724,-0.0724,-0.0724,0,-0.0331,-0.0341,-0.0366,-0.0396,-0.0418,-0.0442,-0.0468,-0.048,-0.0508,-0.0529,-0.0561,-0.0582,-0.0624,-0.0657,-0.0691,-0.0711,-0.0723,-0.0726,-0.0731,-0.0726,-0.0717,-0.0723,-0.0693,-0.0725,-0.0725,-0.0725,-0.0725,-0.0725,-0.0343,-0.0361,-0.0389,-0.0417,-0.0438,-0.0461,-0.0482,-0.0502,-0.0529,-0.0564,-0.0576,-0.0609,-0.064,-0.0688,-0.0707,-0.0735,-0.0736,-0.0743,-0.0745,-0.0747,-0.0747,-0.0711,-0.0741,-0.0741,-0.0741,-0.0741,-0.0741,0,-0.0366,-0.0384,-0.041,-0.0444,-0.0467,-0.0474,-0.0502,-0.0521,-0.055,-0.0576,-0.0602,-0.064,-0.0671,-0.07,-0.0734,-0.075,-0.0757,-0.0758,-0.0758,-0.0763,-0.0744,-0.0736,-0.0753,-0.0753,-0.0753,-0.0753,-0.0753,-0.0753,-0.038,-0.0411,-0.0424,-0.0466,-0.0485,-0.0516,-0.0532,-0.0554,-0.0575,-0.0616,-0.0642,-0.066,-0.0688,-0.0723,-0.0753,-0.0761,-0.0773,-0.0774,-0.0784,-0.0765,-0.0764,-0.0763,-0.0756,-0.0776,-0.0776,-0.0801,-0.0801,-0.0801]},{"header":{"parameterUnit":"m.s-1","parameterCategory":1,"la1":30.2991,"la2":30.254,"lo1":-89.0895,"lo2":-89.0444,"dy":0.0017,"dx":0.0017,"nx":28,"ny":28,"refTime":"2023-10-30T09:00:00:Z","depth":0,"parameterNumber":3,"parameterNumberName":"V-component_of_WINDS"},"data":[0,0,0,0,0,0,0,0,0,0,0,0,0,0,0,0,0,0,0,0,0,0,0,0,0,0,0,0,0,0,0,0,0,0,0,0,0,0,0,0,0,0,0,0,0,0,0,0,0,0,0,0,0,0,0,0,0,0,0.2694,0.2695,0,0.2754,0.2755,0.2755,0.2771,0.2771,0.277,0.277,0.2831,0.2833,0.2835,0,0,0,0,0,0,0,0,0,0,0,0,0,0.2594,0.2596,0.2694,0.2695,0.2696,0.2754,0.2755,0.2755,0.2771,0.2771,0.277,0.277,0.283,0.2833,0.2835,0,0,0,0,0,0,0,0,0,0,0,0,0,0.2644,0.2597,0.2694,0.2711,0.2713,0.2754,0.2755,0.2756,0.2771,0.2771,0.277,0.277,0.2829,0.2832,0.2835,0.2864,0,0,0.2844,0.2845,0,0,0,0,0,0,0,0,0.2641,0.2648,0.2707,0.271,0.2712,0.2755,0.2742,0.2792,0.2771,0.2749,0.277,0.2769,0.2806,0.2811,0.2823,0.2867,0.287,0.2844,0.2846,0.2847,0.2848,0,0,0,0,0,0,0,0.2638,0.2645,0.2718,0.2708,0.2711,0.2715,0.2722,0.2751,0.278,0.2751,0.2752,0.2759,0.2807,0.282,0.2825,0.2871,0.2844,0.2847,0.2849,0.285,0.2941,0.2942,0,0,0,0,0,0,0.2632,0.2642,0.2716,0.272,0.2675,0.2717,0.2725,0.2741,0.2779,0.2785,0.2759,0.2759,0.2815,0.2821,0.2827,0.2863,0.2847,0.285,0.2852,0.2941,0.2941,0.2942,0,0,0,0,0,0,0.2629,0.2638,0.2714,0.2682,0.2691,0.272,0.2738,0.2743,0.2756,0.2786,0.2791,0.2768,0.2815,0.2823,0.2855,0.2866,0.2852,0.2854,0.294,0.2941,0.2942,0.2936,0,0,0,0,0,0,0.2626,0.2637,0.2648,0.2682,0.2693,0.2741,0.2739,0.2744,0.2761,0.2762,0.2795,0.28,0.2815,0.285,0.2858,0.2869,0.2857,0.2939,0.294,0.2941,0.2936,0.2937,0.2938,0,0,0,0,0,0.2623,0.2645,0.2649,0.2658,0.2708,0.2741,0.2748,0.2765,0.2762,0.2774,0.2793,0.2799,0.2863,0.2853,0.2862,0.2875,0.2938,0.294,0.2941,0.2935,0.2937,0.2938,0,0,0,0,0,0,0.2612,0.2649,0.2654,0.2688,0.2711,0.2744,0.2759,0.2766,0.2791,0.2791,0.2811,0.2819,0.2849,0.2865,0.2854,0.2905,0.2901,0.2904,0.2893,0.2895,0.2896,0.2892,0.2859,0,0,0,0,0,0.2614,0.2638,0.2669,0.2695,0.2706,0.2731,0.2746,0.2757,0.2782,0.2792,0.2814,0.2838,0.2864,0.288,0.2906,0.2938,0.2946,0.2951,0.2952,0.2953,0.2956,0.2974,0.2977,0.2947,0.2947,0.2947,0,0,0.2617,0.264,0.2654,0.2693,0.2713,0.2737,0.2739,0.2765,0.2783,0.2796,0.2828,0.2845,0.2873,0.2905,0.2921,0.292,0.2966,0.2955,0.2956,0.2958,0.2976,0.2979,0.2981,0.2948,0.2948,0.2948,0,0,0.2635,0.2655,0.2679,0.2699,0.2728,0.2744,0.275,0.2782,0.2793,0.2825,0.2836,0.2858,0.2902,0.2922,0.2937,0.2963,0.297,0.2971,0.2977,0.2995,0.2998,0.3,0.3009,0.3012,0.2973,0.2973,0.2973,0,0.2636,0.2673,0.2691,0.2716,0.2733,0.2746,0.2771,0.2789,0.2825,0.2836,0.2835,0.289,0.291,0.2947,0.2954,0.2966,0.2973,0.2967,0.2996,0.2998,0.3,0.301,0.3013,0.2973,0.2973,0.2973,0.2973,0,0.2672,0.2698,0.2714,0.2748,0.2767,0.2792,0.2813,0.283,0.284,0.2856,0.2888,0.2913,0.2943,0.2953,0.2963,0.2992,0.299,0.2992,0.2988,0.3003,0.3012,0.3016,0.2973,0.2973,0.2973,0.2973,0,0,0.2686,0.273,0.2735,0.2751,0.2784,0.2805,0.283,0.286,0.2874,0.2898,0.292,0.2957,0.2959,0.2977,0.2989,0.3004,0.3023,0.3004,0.3005,0.3007,0.3057,0.3056,0.3059,0.3028,0.3029,0.3029,0.3055,0,0.2709,0.2754,0.2771,0.2808,0.2832,0.2845,0.2867,0.289,0.2905,0.2928,0.2945,0.2971,0.2972,0.2982,0.2998,0.3017,0.3034,0.3016,0.3049,0.3049,0.3041,0.3064,0.3063,0.3085,0.3058,0.3059,0.3059,0,0.2742,0.2766,0.2806,0.2836,0.2847,0.2866,0.2895,0.2916,0.2943,0.2953,0.2973,0.2984,0.3011,0.3006,0.3043,0.3031,0.3045,0.3057,0.3058,0.3062,0.3055,0.3068,0.3093,0.3097,0.3065,0.3064,0.3064,0,0.2748,0.2791,0.282,0.2833,0.2869,0.2883,0.2898,0.2924,0.2941,0.2966,0.2977,0.3005,0.302,0.3042,0.306,0.3054,0.3096,0.3092,0.3105,0.3105,0.3114,0.3113,0.3141,0.3123,0.3122,0.3122,0.3122,0,0.2772,0.2795,0.2823,0.2841,0.2868,0.2887,0.2914,0.293,0.2953,0.2975,0.2987,0.3007,0.303,0.3053,0.3067,0.3097,0.3103,0.3113,0.3116,0.3112,0.311,0.3121,0.312,0.3123,0.3123,0.3123,0.3123,0,0.2783,0.2803,0.2836,0.2867,0.2875,0.2894,0.2921,0.2939,0.2955,0.2982,0.299,0.3015,0.3043,0.3063,0.3099,0.3109,0.314,0.3143,0.3131,0.3133,0.3145,0.3144,0.3181,0.3187,0.3164,0.3165,0.3165,0,0.2797,0.2816,0.2849,0.2864,0.2879,0.2904,0.2921,0.294,0.2958,0.2989,0.3003,0.3032,0.3056,0.31,0.3121,0.3149,0.3153,0.3165,0.3158,0.3152,0.3154,0.3152,0.3155,0.3166,0.3166,0.3166,0.3166,0,0.282,0.2829,0.2853,0.288,0.29,0.2923,0.2945,0.2957,0.2981,0.2999,0.3028,0.3046,0.3083,0.3111,0.3141,0.3157,0.3166,0.3168,0.3173,0.3168,0.316,0.3165,0.3134,0.3167,0.3167,0.3167,0.3167,0.3167,0.2833,0.285,0.2876,0.2903,0.2922,0.2943,0.2961,0.2979,0.3003,0.3034,0.3044,0.3074,0.31,0.314,0.3157,0.3181,0.318,0.3187,0.3189,0.319,0.319,0.3156,0.3186,0.3186,0.3186,0.3186,0.3186,0,0.2857,0.2874,0.2898,0.2929,0.295,0.2956,0.2981,0.2998,0.3024,0.3047,0.307,0.3103,0.3131,0.3154,0.3183,0.3197,0.3202,0.3204,0.3203,0.3207,0.3188,0.3182,0.32,0.32,0.32,0.32,0.32,0.32,0.2872,0.2901,0.2912,0.2951,0.2968,0.2997,0.3011,0.3031,0.3049,0.3085,0.3108,0.3123,0.3147,0.3177,0.3203,0.3209,0.3219,0.3221,0.3228,0.321,0.3208,0.3207,0.3201,0.3223,0.3223,0.3245,0.3245,0.3245]}]]